Location: Edinburgh
(55.9500°N, 3.1600°W)
Time: 23:05:09
(UTC+00:00)

Vanguard 2 Rocket - Visible Passes

Search period start: 17 February 2018 00:00
Search period end: 27 February 2018 00:00
Orbit: 555 x 3327 km, 32.9° (Epoch: 17 February)

Date Brightness Start Highest point End Pass type
(mag) Time Alt. Az. Time Alt. Az. Time Alt. Az.
17 Feb 10.3 01:54:04 29° SE 01:54:04 29° SE 02:04:19 10° ESE visible
17 Feb 10.1 03:59:51 30° SSW 04:02:41 31° SSW 04:17:43 10° SE visible
17 Feb 10.5 06:05:39 11° WSW 06:16:16 18° SW 06:26:23 10° S visible
18 Feb 10.6 00:57:46 20° SE 00:57:46 20° SE 01:03:13 10° ESE visible
18 Feb 10.1 03:03:34 33° S 03:03:34 33° S 03:17:57 10° SE visible
18 Feb 10.3 05:09:22 19° SW 05:16:09 23° SSW 05:28:48 10° S visible
19 Feb 10.9 00:01:31 10° ESE 00:01:31 10° ESE 00:01:34 10° ESE visible
19 Feb 10.2 02:07:19 29° SSE 02:07:19 29° SSE 02:17:35 10° SE visible
19 Feb 10.1 04:13:07 27° SW 04:15:43 27° SSW 04:30:08 10° SSE visible
19 Feb 10.6 06:21:45 10° WSW 06:28:52 13° SW 06:35:42 10° SSW visible
20 Feb 10.6 01:11:08 20° SE 01:11:08 20° SE 01:16:40 10° ESE visible
20 Feb 10.1 03:16:57 30° S 03:16:57 30° S 03:30:40 10° SE visible
20 Feb 10.4 05:22:45 15° WSW 05:28:56 18° SW 05:39:45 10° S visible
21 Feb 10.9 00:15:00 10° ESE 00:15:00 10° ESE 00:15:12 10° ESE visible
21 Feb 10.3 02:20:49 27° SSE 02:20:49 27° SSE 02:30:31 10° SE visible
21 Feb 10.2 04:26:38 22° SW 04:28:40 23° SSW 04:41:50 10° SSE visible
22 Feb 10.6 01:24:46 19° SE 01:24:46 19° SE 01:29:47 10° SE visible
22 Feb 10.2 03:30:35 26° SSW 03:30:35 26° SSW 03:42:50 10° SSE visible
22 Feb 10.6 05:36:24 11° WSW 05:41:37 13° SW 05:48:36 10° SSW visible
23 Feb 10.4 02:34:36 24° SSE 02:34:36 24° SSE 02:43:01 10° SE visible
23 Feb 10.4 04:40:25 18° SW 04:41:33 18° SW 04:52:25 10° S visible
24 Feb 10.6 01:38:41 17° SE 01:38:41 17° SE 01:42:33 10° SE visible
24 Feb 10.4 03:44:30 21° SSW 03:44:30 21° SSW 03:54:14 10° SSE visible
25 Feb 10.5 02:48:39 19° S 02:48:39 19° S 02:54:56 10° SSE visible
25 Feb 10.6 04:54:29 12° SW 04:54:29 12° SW 05:00:27 10° SSW visible
26 Feb 10.7 01:52:52 13° SSE 01:52:52 13° SSE 01:54:51 10° SE visible
26 Feb 10.6 03:58:42 15° SSW 03:58:42 15° SSW 04:04:20 10° S visible
